Date_Time,Julian_Date,Latitude,Longitude,Instrument_Depth,U,V,Speed,Direction
(yyyy-mm-dd hh:mn:ss UTC),(JD),(+ deg. North),(+ deg. East),(m),(cm/s),(cm/s),(cm/s),(deg True)
1987-04-04 15:00:00 UTC,2446890.125000,29.1167,-92.1433,0007,73.09,249.93,260.3981,16.3011
1987-04-04 15:30:00 UTC,2446890.145833,29.1167,-92.1433,0007,44.39,251.00,254.8950,10.0292
1987-04-04 16:00:00 UTC,2446890.166667,29.1167,-92.1433,0007,57.13,245.77,252.3227,13.0862
1987-04-04 16:30:00 UTC,2446890.187500,29.1167,-92.1433,0007,14.14,245.72,246.1265,3.2935
1987-04-04 17:00:00 UTC,2446890.208333,29.1167,-92.1433,0007,4.21,252.71,252.7451,0.9544
1987-04-04 17:30:00 UTC,2446890.229167,29.1167,-92.1433,0007,-61.93,246.43,254.0926,345.8932
1987-04-04 18:00:00 UTC,2446890.250000,29.1167,-92.1433,0007,-93.50,239.78,257.3649,338.6972
1987-04-04 18:30:00 UTC,2446890.270833,29.1167,-92.1433,0007,-98.94,213.59,235.3929,335.1453
1987-04-04 19:00:00 UTC,2446890.291667,29.1167,-92.1433,0007,-22.23,30.68,37.8871,324.0738
1987-04-04 19:30:00 UTC,2446890.312500,29.1167,-92.1433,0007,1.51,-13.32,13.4053,173.5323
1987-04-04 20:00:00 UTC,2446890.333333,29.1167,-92.1433,0007,0.60,-3.33,3.3836,169.7860
1987-04-04 20:30:00 UTC,2446890.354167,29.1167,-92.1433,0007,0.84,-1.12,1.4000,143.1301
1987-04-04 21:00:00 UTC,2446890.375000,29.1167,-92.1433,0007,-4.30,-2.56,5.0044,239.2326
1987-04-04 21:30:00 UTC,2446890.395833,29.1167,-92.1433,0007,-4.61,0.60,4.6489,277.4155
1987-04-04 22:00:00 UTC,2446890.416667,29.1167,-92.1433,0007,-3.32,-4.48,5.5761,216.5411
1987-04-04 22:30:00 UTC,2446890.437500,29.1167,-92.1433,0007,0.09,-4.46,4.4609,178.8440
1987-04-04 23:00:00 UTC,2446890.458333,29.1167,-92.1433,0007,-0.87,-1.93,2.1170,204.2648
1987-04-04 23:30:00 UTC,2446890.479167,29.1167,-92.1433,0007,-2.21,-0.46,2.2574,258.2421
1987-04-05 00:00:00 UTC,2446890.500000,29.1167,-92.1433,0007,-1.85,1.27,2.2440,304.4691
1987-04-05 00:30:00 UTC,2446890.520833,29.1167,-92.1433,0007,0.32,-5.13,5.1400,176.4306
1987-04-05 01:00:00 UTC,2446890.541667,29.1167,-92.1433,0007,2.90,-3.41,4.4764,139.6208
1987-04-05 01:30:00 UTC,2446890.562500,29.1167,-92.1433,0007,-1.27,-4.17,4.3591,196.9384
1987-04-05 02:00:00 UTC,2446890.583333,29.1167,-92.1433,0007,-1.02,1.05,1.4639,315.8303
1987-04-05 02:30:00 UTC,2446890.604167,29.1167,-92.1433,0007,3.78,-0.47,3.8091,97.0877
1987-04-05 03:00:00 UTC,2446890.625000,29.1167,-92.1433,0007,4.07,4.39,5.9864,42.8338
1987-04-05 03:30:00 UTC,2446890.645833,29.1167,-92.1433,0007,2.66,0.58,2.7225,77.6995
1987-04-05 04:00:00 UTC,2446890.666667,29.1167,-92.1433,0007,0.82,2.23,2.3760,20.1891
1987-04-05 04:30:00 UTC,2446890.687500,29.1167,-92.1433,0007,-0.45,-0.14,0.4713,252.7185
1987-04-05 05:00:00 UTC,2446890.708333,29.1167,-92.1433,0007,-3.19,-4.78,5.7467,213.7177
1987-04-05 05:30:00 UTC,2446890.729167,29.1167,-92.1433,0007,-2.04,-2.20,3.0003,222.8389
1987-04-05 06:00:00 UTC,2446890.750000,29.1167,-92.1433,0007,-4.04,0.34,4.0543,274.8106
1987-04-05 06:30:00 UTC,2446890.770833,29.1167,-92.1433,0007,-2.09,1.69,2.6878,308.9594
1987-04-05 07:00:00 UTC,2446890.791667,29.1167,-92.1433,0007,2.65,-0.74,2.7514,105.6021
1987-04-05 07:30:00 UTC,2446890.812500,29.1167,-92.1433,0007,-0.18,1.28,1.2926,351.9953
1987-04-05 08:00:00 UTC,2446890.833333,29.1167,-92.1433,0007,-0.24,4.51,4.5164,356.9539
1987-04-05 08:30:00 UTC,2446890.854167,29.1167,-92.1433,0007,0.79,7.68,7.7205,5.8730
1987-04-05 09:00:00 UTC,2446890.875000,29.1167,-92.1433,0007,-1.21,4.79,4.9405,345.8231
1987-04-05 09:30:00 UTC,2446890.895833,29.1167,-92.1433,0007,-2.19,4.78,5.2578,335.3847
1987-04-05 10:00:00 UTC,2446890.916667,29.1167,-92.1433,0007,-0.85,1.38,1.6208,328.3694
1987-04-05 10:30:00 UTC,2446890.937500,29.1167,-92.1433,0007,3.26,6.95,7.6766,25.1296
1987-04-05 11:00:00 UTC,2446890.958333,29.1167,-92.1433,0007,-0.33,6.28,6.2887,356.9920
1987-04-05 11:30:00 UTC,2446890.979167,29.1167,-92.1433,0007,-5.11,6.18,8.0190,320.4140
1987-04-05 12:00:00 UTC,2446891.000000,29.1167,-92.1433,0007,-5.18,-0.47,5.2013,264.8156
1987-04-05 12:30:00 UTC,2446891.020833,29.1167,-92.1433,0007,-0.71,-4.34,4.3977,189.2910
1987-04-05 13:00:00 UTC,2446891.041667,29.1167,-92.1433,0007,-5.04,4.74,6.9188,313.2430
1987-04-05 13:30:00 UTC,2446891.062500,29.1167,-92.1433,0007,-0.24,3.50,3.5082,356.0773
1987-04-05 14:00:00 UTC,2446891.083333,29.1167,-92.1433,0007,-1.80,-1.36,2.2560,232.9269
1987-04-05 14:30:00 UTC,2446891.104167,29.1167,-92.1433,0007,-2.73,2.94,4.0120,317.1211
1987-04-05 15:00:00 UTC,2446891.125000,29.1167,-92.1433,0007,2.15,2.72,3.4671,38.3243
1987-04-05 15:30:00 UTC,2446891.145833,29.1167,-92.1433,0007,0.10,-3.41,3.4115,178.3203
1987-04-05 16:00:00 UTC,2446891.166667,29.1167,-92.1433,0007,-0.86,-7.89,7.9367,186.2206
1987-04-05 16:30:00 UTC,2446891.187500,29.1167,-92.1433,0007,-4.47,-5.87,7.3782,217.2892
1987-04-05 17:00:00 UTC,2446891.208333,29.1167,-92.1433,0007,-2.67,-2.12,3.4093,231.5502
1987-04-05 17:30:00 UTC,2446891.229167,29.1167,-92.1433,0007,3.15,3.02,4.3638,46.2070
1987-04-05 18:00:00 UTC,2446891.250000,29.1167,-92.1433,0007,3.55,-2.78,4.5090,128.0644
1987-04-05 18:30:00 UTC,2446891.270833,29.1167,-92.1433,0007,2.82,-3.51,4.5025,141.2209
1987-04-05 19:00:00 UTC,2446891.291667,29.1167,-92.1433,0007,-0.14,1.47,1.4767,354.5597
1987-04-05 19:30:00 UTC,2446891.312500,29.1167,-92.1433,0007,-3.22,-1.80,3.6890,240.7946
1987-04-05 20:00:00 UTC,2446891.333333,29.1167,-92.1433,0007,3.72,0.35,3.7364,84.6251
1987-04-05 20:30:00 UTC,2446891.354167,29.1167,-92.1433,0007,0.58,-0.73,0.9324,141.5321
1987-04-05 21:00:00 UTC,2446891.375000,29.1167,-92.1433,0007,3.17,-1.01,3.3270,107.6725
1987-04-05 21:30:00 UTC,2446891.395833,29.1167,-92.1433,0007,-0.35,0.30,0.4610,310.6013
1987-04-05 22:00:00 UTC,2446891.416667,29.1167,-92.1433,0007,-4.05,-4.56,6.0989,221.6101
1987-04-05 22:30:00 UTC,2446891.437500,29.1167,-92.1433,0007,0.94,-3.40,3.5275,164.5454
1987-04-05 23:00:00 UTC,2446891.458333,29.1167,-92.1433,0007,0.02,0.74,0.7403,1.5482
1987-04-05 23:30:00 UTC,2446891.479167,29.1167,-92.1433,0007,-0.56,-2.84,2.8947,191.1547
1987-04-06 00:00:00 UTC,2446891.500000,29.1167,-92.1433,0007,0.34,-0.99,1.0468,161.0458
1987-04-06 00:30:00 UTC,2446891.520833,29.1167,-92.1433,0007,-3.03,-3.59,4.6978,220.1647
1987-04-06 01:00:00 UTC,2446891.541667,29.1167,-92.1433,0007,0.27,-1.52,1.5438,169.9275
1987-04-06 01:30:00 UTC,2446891.562500,29.1167,-92.1433,0007,1.39,-2.43,2.7995,150.2297
1987-04-06 02:00:00 UTC,2446891.583333,29.1167,-92.1433,0007,3.82,0.37,3.8379,84.4677
1987-04-06 02:30:00 UTC,2446891.604167,29.1167,-92.1433,0007,-4.23,0.69,4.2859,279.2645
1987-04-06 03:00:00 UTC,2446891.625000,29.1167,-92.1433,0007,4.02,-1.23,4.2040,107.0125
1987-04-06 03:30:00 UTC,2446891.645833,29.1167,-92.1433,0007,1.73,-1.16,2.0829,123.8426
1987-04-06 04:00:00 UTC,2446891.666667,29.1167,-92.1433,0007,3.16,-5.44,6.2912,149.8484
1987-04-06 04:30:00 UTC,2446891.687500,29.1167,-92.1433,0007,-1.07,0.08,1.0730,274.2758
1987-04-06 05:00:00 UTC,2446891.708333,29.1167,-92.1433,0007,-0.44,-1.59,1.6498,195.4684
1987-04-06 05:30:00 UTC,2446891.729167,29.1167,-92.1433,0007,-3.30,1.06,3.4661,287.8076
1987-04-06 06:00:00 UTC,2446891.750000,29.1167,-92.1433,0007,-1.20,-5.18,5.3172,193.0431
1987-04-06 06:30:00 UTC,2446891.770833,29.1167,-92.1433,0007,-0.60,-2.60,2.6683,192.9946
1987-04-06 07:00:00 UTC,2446891.791667,29.1167,-92.1433,0007,-4.62,-2.93,5.4708,237.6172
1987-04-06 07:30:00 UTC,2446891.812500,29.1167,-92.1433,0007,-2.35,-1.12,2.6032,244.5177
1987-04-06 08:00:00 UTC,2446891.833333,29.1167,-92.1433,0007,-3.14,1.13,3.3371,289.7924
1987-04-06 08:30:00 UTC,2446891.854167,29.1167,-92.1433,0007,-4.66,-0.35,4.6731,265.7047
1987-04-06 09:00:00 UTC,2446891.875000,29.1167,-92.1433,0007,-1.57,-0.24,1.5882,261.3087
1987-04-06 09:30:00 UTC,2446891.895833,29.1167,-92.1433,0007,-1.30,-5.45,5.6029,193.4162
1987-04-06 10:00:00 UTC,2446891.916667,29.1167,-92.1433,0007,-4.10,-2.38,4.7407,239.8654
1987-04-06 10:30:00 UTC,2446891.937500,29.1167,-92.1433,0007,-2.35,-2.12,3.1649,227.9455
1987-04-06 11:00:00 UTC,2446891.958333,29.1167,-92.1433,0007,-3.00,-3.09,4.3068,224.1533
1987-04-06 11:30:00 UTC,2446891.979167,29.1167,-92.1433,0007,-14.66,0.25,14.6621,270.9770
1987-04-06 12:00:00 UTC,2446892.000000,29.1167,-92.1433,0007,-13.14,5.03,14.0698,290.9469
1987-04-06 12:30:00 UTC,2446892.020833,29.1167,-92.1433,0007,-12.67,8.84,15.4491,304.9039
1987-04-06 13:00:00 UTC,2446892.041667,29.1167,-92.1433,0007,-13.62,17.64,22.2862,322.3279
1987-04-06 13:30:00 UTC,2446892.062500,29.1167,-92.1433,0007,-7.29,19.19,20.5280,339.1989
1987-04-06 14:00:00 UTC,2446892.083333,29.1167,-92.1433,0007,-0.54,18.40,18.4079,358.3190
1987-04-06 14:30:00 UTC,2446892.104167,29.1167,-92.1433,0007,1.77,25.82,25.8806,3.9216
1987-04-06 15:00:00 UTC,2446892.125000,29.1167,-92.1433,0007,7.09,23.16,24.2209,17.0210
1987-04-06 15:30:00 UTC,2446892.145833,29.1167,-92.1433,0007,5.38,14.10,15.0915,20.8849
1987-04-06 16:00:00 UTC,2446892.166667,29.1167,-92.1433,0007,6.35,15.00,16.2887,22.9446
1987-04-06 16:30:00 UTC,2446892.187500,29.1167,-92.1433,0007,10.37,8.20,13.2203,51.6651
1987-04-06 17:00:00 UTC,2446892.208333,29.1167,-92.1433,0007,8.75,0.52,8.7654,86.5990
1987-04-06 17:30:00 UTC,2446892.229167,29.1167,-92.1433,0007,3.88,6.72,7.7597,30.0013
1987-04-06 18:00:00 UTC,2446892.250000,29.1167,-92.1433,0007,3.70,1.21,3.8928,71.8909
1987-04-06 18:30:00 UTC,2446892.270833,29.1167,-92.1433,0007,-1.65,-1.70,2.3691,224.1449
1987-04-06 19:00:00 UTC,2446892.291667,29.1167,-92.1433,0007,1.10,2.44,2.6765,24.2668
1987-04-06 19:30:00 UTC,2446892.312500,29.1167,-92.1433,0007,1.84,2.47,3.0800,36.6839
1987-04-06 20:00:00 UTC,2446892.333333,29.1167,-92.1433,0007,1.08,2.79,2.9917,21.1613
1987-04-06 20:30:00 UTC,2446892.354167,29.1167,-92.1433,0007,1.12,-0.68,1.3103,121.2637
1987-04-06 21:00:00 UTC,2446892.375000,29.1167,-92.1433,0007,-0.81,-2.38,2.5141,198.7953
1987-04-06 21:30:00 UTC,2446892.395833,29.1167,-92.1433,0007,3.10,1.74,3.5549,60.6949
1987-04-06 22:00:00 UTC,2446892.416667,29.1167,-92.1433,0007,2.33,-4.88,5.4077,154.4774
1987-04-06 22:30:00 UTC,2446892.437500,29.1167,-92.1433,0007,2.90,1.81,3.4185,58.0301
1987-04-06 23:00:00 UTC,2446892.458333,29.1167,-92.1433,0007,0.41,3.18,3.2063,7.3467
1987-04-06 23:30:00 UTC,2446892.479167,29.1167,-92.1433,0007,2.99,3.07,4.2854,44.2437
1987-04-07 00:00:00 UTC,2446892.500000,29.1167,-92.1433,0007,3.36,3.89,5.1402,40.8189
1987-04-07 00:30:00 UTC,2446892.520833,29.1167,-92.1433,0007,3.36,1.65,3.7433,63.8457
1987-04-07 01:00:00 UTC,2446892.541667,29.1167,-92.1433,0007,2.46,0.36,2.4862,81.6743
1987-04-07 01:30:00 UTC,2446892.562500,29.1167,-92.1433,0007,3.55,0.91,3.6648,75.6225
1987-04-07 02:00:00 UTC,2446892.583333,29.1167,-92.1433,0007,-0.83,-0.16,0.8453,259.0889
1987-04-07 02:30:00 UTC,2446892.604167,29.1167,-92.1433,0007,-9.66,0.06,9.6602,270.3559
1987-04-07 03:00:00 UTC,2446892.625000,29.1167,-92.1433,0007,-8.74,0.39,8.7487,272.5550
1987-04-07 03:30:00 UTC,2446892.645833,29.1167,-92.1433,0007,16.81,-17.99,24.6215,136.9420
1987-04-07 04:00:00 UTC,2446892.666667,29.1167,-92.1433,0007,34.46,-31.56,46.7282,132.4848
1987-04-07 04:30:00 UTC,2446892.687500,29.1167,-92.1433,0007,88.80,-74.78,116.0926,130.1013
1987-04-07 05:00:00 UTC,2446892.708333,29.1167,-92.1433,0007,128.55,-108.51,168.2246,130.1680
1987-04-07 05:30:00 UTC,2446892.729167,29.1167,-92.1433,0007,165.28,-139.90,216.5398,130.2460
1987-04-07 06:00:00 UTC,2446892.750000,29.1167,-92.1433,0007,196.78,-166.94,258.0529,130.3099
1987-04-07 06:30:00 UTC,2446892.770833,29.1167,-92.1433,0007,221.18,-188.07,290.3289,130.3746
1987-04-07 07:00:00 UTC,2446892.791667,29.1167,-92.1433,0007,236.60,-201.72,310.9188,130.4502
1987-04-07 07:30:00 UTC,2446892.812500,29.1167,-92.1433,0007,241.32,-206.47,317.5928,130.5498
1987-04-07 08:00:00 UTC,2446892.833333,29.1167,-92.1433,0007,233.39,-200.69,307.8106,130.6919
1987-04-07 08:30:00 UTC,2446892.854167,29.1167,-92.1433,0007,197.72,-171.89,261.9912,131.0024
1987-04-07 09:00:00 UTC,2446892.875000,29.1167,-92.1433,0007,7.10,-17.40,18.7928,157.8023
1987-04-07 09:30:00 UTC,2446892.895833,29.1167,-92.1433,0007,-8.47,-4.47,9.5772,242.1774
1987-04-07 10:00:00 UTC,2446892.916667,29.1167,-92.1433,0007,-3.61,6.74,7.6459,331.8261
1987-04-07 10:30:00 UTC,2446892.937500,29.1167,-92.1433,0007,1.23,14.73,14.7813,4.7733
1987-04-07 11:00:00 UTC,2446892.958333,29.1167,-92.1433,0007,2.35,13.64,13.8410,9.7754
1987-04-07 11:30:00 UTC,2446892.979167,29.1167,-92.1433,0007,0.59,12.30,12.3141,2.7462
1987-04-07 12:00:00 UTC,2446893.000000,29.1167,-92.1433,0007,2.27,18.65,18.7876,6.9397
1987-04-07 12:30:00 UTC,2446893.020833,29.1167,-92.1433,0007,6.25,18.55,19.5746,18.6201
1987-04-07 13:00:00 UTC,2446893.041667,29.1167,-92.1433,0007,7.20,15.97,17.5180,24.2680
1987-04-07 13:30:00 UTC,2446893.062500,29.1167,-92.1433,0007,11.61,20.35,23.4289,29.7054
1987-04-07 14:00:00 UTC,2446893.083333,29.1167,-92.1433,0007,13.84,17.32,22.1704,38.6275
1987-04-07 14:30:00 UTC,2446893.104167,29.1167,-92.1433,0007,14.34,17.90,22.9357,38.6988
1987-04-07 15:00:00 UTC,2446893.125000,29.1167,-92.1433,0007,19.99,18.82,27.4553,46.7268
1987-04-07 15:30:00 UTC,2446893.145833,29.1167,-92.1433,0007,23.47,16.00,28.4049,55.7169
1987-04-07 16:00:00 UTC,2446893.166667,29.1167,-92.1433,0007,22.88,13.20,26.4147,60.0184
1987-04-07 16:30:00 UTC,2446893.187500,29.1167,-92.1433,0007,26.24,11.24,28.5460,66.8120
1987-04-07 17:00:00 UTC,2446893.208333,29.1167,-92.1433,0007,24.44,4.05,24.7733,80.5909
1987-04-07 17:30:00 UTC,2446893.229167,29.1167,-92.1433,0007,23.26,-0.36,23.2628,90.8867
1987-04-07 18:00:00 UTC,2446893.250000,29.1167,-92.1433,0007,24.39,0.17,24.3906,89.6006
1987-04-07 18:30:00 UTC,2446893.270833,29.1167,-92.1433,0007,26.99,-4.11,27.3011,98.6584
1987-04-07 19:00:00 UTC,2446893.291667,29.1167,-92.1433,0007,25.80,-4.02,26.1113,98.8563
1987-04-07 19:30:00 UTC,2446893.312500,29.1167,-92.1433,0007,22.28,-3.79,22.6001,99.6540
1987-04-07 20:00:00 UTC,2446893.333333,29.1167,-92.1433,0007,19.55,-9.77,21.8553,116.5533
1987-04-07 20:30:00 UTC,2446893.354167,29.1167,-92.1433,0007,21.04,-11.10,23.7885,117.8146
1987-04-07 21:00:00 UTC,2446893.375000,29.1167,-92.1433,0007,15.41,-9.57,18.1398,121.8413
1987-04-07 21:30:00 UTC,2446893.395833,29.1167,-92.1433,0007,5.50,-8.79,10.3689,147.9653
1987-04-07 22:00:00 UTC,2446893.416667,29.1167,-92.1433,0007,4.68,-0.80,4.7479,99.7004
1987-04-07 22:30:00 UTC,2446893.437500,29.1167,-92.1433,0007,5.07,-0.47,5.0917,95.2963
1987-04-07 23:00:00 UTC,2446893.458333,29.1167,-92.1433,0007,-0.04,1.81,1.8104,358.7340
1987-04-07 23:30:00 UTC,2446893.479167,29.1167,-92.1433,0007,-0.40,-6.94,6.9515,183.2987
1987-04-08 00:00:00 UTC,2446893.500000,29.1167,-92.1433,0007,1.89,-5.12,5.4577,159.7388
1987-04-08 00:30:00 UTC,2446893.520833,29.1167,-92.1433,0007,2.50,4.22,4.9049,30.6432
1987-04-08 01:00:00 UTC,2446893.541667,29.1167,-92.1433,0007,3.44,0.14,3.4428,87.6695
1987-04-08 01:30:00 UTC,2446893.562500,29.1167,-92.1433,0007,5.75,1.48,5.9374,75.5659
1987-04-08 02:00:00 UTC,2446893.583333,29.1167,-92.1433,0007,1.57,-4.83,5.0788,161.9931
1987-04-08 02:30:00 UTC,2446893.604167,29.1167,-92.1433,0007,0.29,-6.11,6.1169,177.2826
1987-04-08 03:00:00 UTC,2446893.625000,29.1167,-92.1433,0007,0.09,-4.01,4.0110,178.7143
1987-04-08 03:30:00 UTC,2446893.645833,29.1167,-92.1433,0007,-1.65,-0.93,1.8940,240.5928
1987-04-08 04:00:00 UTC,2446893.666667,29.1167,-92.1433,0007,6.11,-2.47,6.5904,112.0113
1987-04-08 04:30:00 UTC,2446893.687500,29.1167,-92.1433,0007,-0.05,0.09,0.1030,330.9454
1987-04-08 05:00:00 UTC,2446893.708333,29.1167,-92.1433,0007,2.10,-3.53,4.1074,149.2515
1987-04-08 05:30:00 UTC,2446893.729167,29.1167,-92.1433,0007,7.79,-1.12,7.8701,98.1816
1987-04-08 06:00:00 UTC,2446893.750000,29.1167,-92.1433,0007,3.68,-0.63,3.7335,99.7146
1987-04-08 06:30:00 UTC,2446893.770833,29.1167,-92.1433,0007,6.22,4.99,7.9742,51.2616
1987-04-08 07:00:00 UTC,2446893.791667,29.1167,-92.1433,0007,5.37,5.03,7.3578,46.8725
1987-04-08 07:30:00 UTC,2446893.812500,29.1167,-92.1433,0007,3.21,-0.44,3.2400,97.8050
1987-04-08 08:00:00 UTC,2446893.833333,29.1167,-92.1433,0007,0.98,-6.48,6.5537,171.4001
1987-04-08 08:30:00 UTC,2446893.854167,29.1167,-92.1433,0007,1.82,-5.66,5.9454,162.1746
1987-04-08 09:00:00 UTC,2446893.875000,29.1167,-92.1433,0007,3.39,1.50,3.7070,66.1317
1987-04-08 09:30:00 UTC,2446893.895833,29.1167,-92.1433,0007,1.91,3.94,4.3786,25.8628
1987-04-08 10:00:00 UTC,2446893.916667,29.1167,-92.1433,0007,0.50,6.23,6.2500,4.5885
1987-04-08 10:30:00 UTC,2446893.937500,29.1167,-92.1433,0007,7.08,7.90,10.6083,41.8668
1987-04-08 11:00:00 UTC,2446893.958333,29.1167,-92.1433,0007,6.58,13.59,15.0992,25.8353
1987-04-08 11:30:00 UTC,2446893.979167,29.1167,-92.1433,0007,9.13,13.39,16.2064,34.2882
1987-04-08 12:00:00 UTC,2446894.000000,29.1167,-92.1433,0007,9.24,16.96,19.3137,28.5820
1987-04-08 12:30:00 UTC,2446894.020833,29.1167,-92.1433,0007,8.53,18.11,20.0183,25.2209
1987-04-08 13:00:00 UTC,2446894.041667,29.1167,-92.1433,0007,9.52,20.40,22.5120,25.0169
1987-04-08 13:30:00 UTC,2446894.062500,29.1167,-92.1433,0007,8.59,23.16,24.7017,20.3497
1987-04-08 14:00:00 UTC,2446894.083333,29.1167,-92.1433,0007,8.72,26.75,28.1354,18.0550
1987-04-08 14:30:00 UTC,2446894.104167,29.1167,-92.1433,0007,12.19,35.19,37.2415,19.1064
1987-04-08 15:00:00 UTC,2446894.125000,29.1167,-92.1433,0007,17.81,34.62,38.9325,27.2232
1987-04-08 15:30:00 UTC,2446894.145833,29.1167,-92.1433,0007,14.09,31.94,34.9098,23.8042
1987-04-08 16:00:00 UTC,2446894.166667,29.1167,-92.1433,0007,18.07,30.64,35.5715,30.5301
1987-04-08 16:30:00 UTC,2446894.187500,29.1167,-92.1433,0007,19.51,31.92,37.4102,31.4339
1987-04-08 17:00:00 UTC,2446894.208333,29.1167,-92.1433,0007,14.96,21.28,26.0123,35.1075
1987-04-08 17:30:00 UTC,2446894.229167,29.1167,-92.1433,0007,23.75,22.40,32.6469,46.6756
1987-04-08 18:00:00 UTC,2446894.250000,29.1167,-92.1433,0007,22.52,22.61,31.9118,44.8857
1987-04-08 18:30:00 UTC,2446894.270833,29.1167,-92.1433,0007,27.30,20.69,34.2544,52.8424
1987-04-08 19:00:00 UTC,2446894.291667,29.1167,-92.1433,0007,31.76,12.36,34.0803,68.7356
1987-04-08 19:30:00 UTC,2446894.312500,29.1167,-92.1433,0007,31.40,11.47,33.4293,69.9334
1987-04-08 20:00:00 UTC,2446894.333333,29.1167,-92.1433,0007,31.09,0.68,31.0974,88.7470
1987-04-08 20:30:00 UTC,2446894.354167,29.1167,-92.1433,0007,33.41,-3.20,33.5629,95.4711
1987-04-08 21:00:00 UTC,2446894.375000,29.1167,-92.1433,0007,36.25,-0.50,36.2534,90.7902
1987-04-08 21:30:00 UTC,2446894.395833,29.1167,-92.1433,0007,29.44,-1.62,29.4845,93.1496
1987-04-08 22:00:00 UTC,2446894.416667,29.1167,-92.1433,0007,32.28,1.00,32.2955,88.2256
1987-04-08 22:30:00 UTC,2446894.437500,29.1167,-92.1433,0007,30.43,4.94,30.8284,80.7791
1987-04-08 23:00:00 UTC,2446894.458333,29.1167,-92.1433,0007,27.80,6.11,28.4635,77.6044
1987-04-08 23:30:00 UTC,2446894.479167,29.1167,-92.1433,0007,25.82,11.46,28.2490,66.0663
1987-04-09 00:00:00 UTC,2446894.500000,29.1167,-92.1433,0007,23.61,1.69,23.6704,85.9058
1987-04-09 00:30:00 UTC,2446894.520833,29.1167,-92.1433,0007,21.59,1.14,21.6201,86.9775
1987-04-09 01:00:00 UTC,2446894.541667,29.1167,-92.1433,0007,20.93,-0.90,20.9493,92.4622
1987-04-09 01:30:00 UTC,2446894.562500,29.1167,-92.1433,0007,24.06,-1.16,24.0879,92.7602
1987-04-09 02:00:00 UTC,2446894.583333,29.1167,-92.1433,0007,23.70,-1.99,23.7834,94.7996
1987-04-09 02:30:00 UTC,2446894.604167,29.1167,-92.1433,0007,25.39,1.29,25.4227,87.0914
1987-04-09 03:00:00 UTC,2446894.625000,29.1167,-92.1433,0007,28.88,2.75,29.0106,84.5606
1987-04-09 03:30:00 UTC,2446894.645833,29.1167,-92.1433,0007,34.62,5.32,35.0264,81.2638
1987-04-09 04:00:00 UTC,2446894.666667,29.1167,-92.1433,0007,37.02,3.08,37.1479,85.2440
1987-04-09 04:30:00 UTC,2446894.687500,29.1167,-92.1433,0007,36.25,2.70,36.3504,85.7403
1987-04-09 05:00:00 UTC,2446894.708333,29.1167,-92.1433,0007,35.03,-1.60,35.0665,92.6152
1987-04-09 05:30:00 UTC,2446894.729167,29.1167,-92.1433,0007,36.71,-3.29,36.8571,95.1212
1987-04-09 06:00:00 UTC,2446894.750000,29.1167,-92.1433,0007,35.24,-5.54,35.6728,98.9342
1987-04-09 06:30:00 UTC,2446894.770833,29.1167,-92.1433,0007,31.36,1.42,31.3921,87.4074
1987-04-09 07:00:00 UTC,2446894.791667,29.1167,-92.1433,0007,32.86,4.01,33.1038,83.0424
1987-04-09 07:30:00 UTC,2446894.812500,29.1167,-92.1433,0007,29.83,0.18,29.8305,89.6543
1987-04-09 08:00:00 UTC,2446894.833333,29.1167,-92.1433,0007,35.37,-1.79,35.4153,92.8971
1987-04-09 08:30:00 UTC,2446894.854167,29.1167,-92.1433,0007,34.24,0.87,34.2510,88.5445
1987-04-09 09:00:00 UTC,2446894.875000,29.1167,-92.1433,0007,30.93,1.91,30.9889,86.4663
1987-04-09 09:30:00 UTC,2446894.895833,29.1167,-92.1433,0007,23.66,6.90,24.6456,73.7417
1987-04-09 10:00:00 UTC,2446894.916667,29.1167,-92.1433,0007,20.20,1.77,20.2774,84.9923
1987-04-09 10:30:00 UTC,2446894.937500,29.1167,-92.1433,0007,18.06,-3.09,18.3224,99.7091
1987-04-09 11:00:00 UTC,2446894.958333,29.1167,-92.1433,0007,20.04,1.97,20.1366,84.3857
1987-04-09 11:30:00 UTC,2446894.979167,29.1167,-92.1433,0007,17.04,8.05,18.8458,64.7131
1987-04-09 12:00:00 UTC,2446895.000000,29.1167,-92.1433,0007,17.27,7.25,18.7301,67.2272
1987-04-09 12:30:00 UTC,2446895.020833,29.1167,-92.1433,0007,21.58,16.28,27.0321,52.9690
1987-04-09 13:00:00 UTC,2446895.041667,29.1167,-92.1433,0007,24.29,21.32,32.3194,48.7257
1987-04-09 13:30:00 UTC,2446895.062500,29.1167,-92.1433,0007,26.62,26.57,37.6110,45.0539
1987-04-09 14:00:00 UTC,2446895.083333,29.1167,-92.1433,0007,22.45,24.38,33.1419,42.6400
1987-04-09 14:30:00 UTC,2446895.104167,29.1167,-92.1433,0007,25.37,22.05,33.6131,49.0049
1987-04-09 15:00:00 UTC,2446895.125000,29.1167,-92.1433,0007,24.31,19.87,31.3973,50.7388
1987-04-09 15:30:00 UTC,2446895.145833,29.1167,-92.1433,0007,34.29,29.04,44.9347,49.7389
1987-04-09 16:00:00 UTC,2446895.166667,29.1167,-92.1433,0007,32.40,30.62,44.5796,46.6179
1987-04-09 16:30:00 UTC,2446895.187500,29.1167,-92.1433,0007,34.15,29.98,45.4425,48.7204
1987-04-09 17:00:00 UTC,2446895.208333,29.1167,-92.1433,0007,33.51,29.61,44.7177,48.5356
1987-04-09 17:30:00 UTC,2446895.229167,29.1167,-92.1433,0007,34.22,29.67,45.2915,49.0735
1987-04-09 18:00:00 UTC,2446895.250000,29.1167,-92.1433,0007,33.69,29.27,44.6290,49.0158
1987-04-09 18:30:00 UTC,2446895.270833,29.1167,-92.1433,0007,36.98,29.16,47.0938,51.7430
1987-04-09 19:00:00 UTC,2446895.291667,29.1167,-92.1433,0007,44.36,34.03,55.9093,52.5070
1987-04-09 19:30:00 UTC,2446895.312500,29.1167,-92.1433,0007,46.02,36.31,58.6196,51.7264
1987-04-09 20:00:00 UTC,2446895.333333,29.1167,-92.1433,0007,50.37,42.84,66.1241,49.6186
1987-04-09 20:30:00 UTC,2446895.354167,29.1167,-92.1433,0007,56.92,49.09,75.1646,49.2242
1987-04-09 21:00:00 UTC,2446895.375000,29.1167,-92.1433,0007,57.52,49.09,75.6200,49.5212
1987-04-09 21:30:00 UTC,2446895.395833,29.1167,-92.1433,0007,60.08,54.54,81.1432,47.7672
1987-04-09 22:00:00 UTC,2446895.416667,29.1167,-92.1433,0007,59.72,56.82,82.4317,46.4255
1987-04-09 22:30:00 UTC,2446895.437500,29.1167,-92.1433,0007,58.35,56.23,81.0342,46.0600
1987-04-09 23:00:00 UTC,2446895.458333,29.1167,-92.1433,0007,56.46,50.49,75.7428,48.1950
1987-04-09 23:30:00 UTC,2446895.479167,29.1167,-92.1433,0007,55.79,53.42,77.2413,46.2432
1987-04-10 00:00:00 UTC,2446895.500000,29.1167,-92.1433,0007,51.95,55.97,76.3639,42.8667
1987-04-10 00:30:00 UTC,2446895.520833,29.1167,-92.1433,0007,50.40,57.03,76.1090,41.4685
1987-04-10 01:00:00 UTC,2446895.541667,29.1167,-92.1433,0007,49.43,58.13,76.3048,40.3757
1987-04-10 01:30:00 UTC,2446895.562500,29.1167,-92.1433,0007,46.00,53.19,70.3219,40.8540
1987-04-10 02:00:00 UTC,2446895.583333,29.1167,-92.1433,0007,46.36,49.95,68.1488,42.8653
1987-04-10 02:30:00 UTC,2446895.604167,29.1167,-92.1433,0007,47.09,48.44,67.5567,44.1904
1987-04-10 03:00:00 UTC,2446895.625000,29.1167,-92.1433,0007,47.63,48.88,68.2486,44.2579
1987-04-10 03:30:00 UTC,2446895.645833,29.1167,-92.1433,0007,45.63,45.88,64.7076,44.8435
1987-04-10 04:00:00 UTC,2446895.666667,29.1167,-92.1433,0007,42.92,39.76,58.5063,47.1888
1987-04-10 04:30:00 UTC,2446895.687500,29.1167,-92.1433,0007,38.52,28.50,47.9170,53.5032
1987-04-10 05:00:00 UTC,2446895.708333,29.1167,-92.1433,0007,35.15,20.96,40.9249,59.1923